Вернуться в каталог

COSMOS 2251 DEB

АктивенLEO
NORAD 40235·DEBRIS·🇷🇺 Russia

Запущен Jun 16, 1993 с Plesetsk Cosmodrome

Loading…

Ближайшие Пролёты (ближайшие 24 часа)

TLE

УстаревшееSource: Space-Track

Эпоха: Aug 24, 2026, 23:11 UTC

1 40235U 93036BVQ 26236.96646391  .00004505  00000-0  70315-3 0  9991
2 40235  74.0178 310.5583 0011574 347.1619 185.8353 14.73133893631170

Отслеживайте COSMOS 2251 DEB в реальном времени с AllMySat

Download on the App Store